Regional Weather Roundup
Issued by NWS

Home | Current Version | Previous Version | Graphics & Text | Print | Product List | Glossary On
Versions: 1 2 3 4 5 6 7 8 9 10 11 12 13 14 15 16 17 18 19 20 21 22 23 24 25 26 27 28 29 30 31 32 33 34 35 36 37 38 39 40 41 42 43 44 45 46 47 48 49 50
000
ASUS43 KMPX 012301
RWRMN
WEATHER ROUNDUP FOR MINNESOTA
NATIONAL WEATHER SERVICE TWIN CITIES/CHANHASSEN MN
500 PM CST SUN MAR 01 2015


NOTE: "FAIR" INDICATES FEW OR NO CLOUDS BELOW 12,000 FEET WITH NO
SIGNIFICANT WEATHER AND/OR OBSTRUCTIONS TO VISIBILITY. N/A MEANS
CURRENT SKY AND/OR WEATHER CONDITIONS ARE NOT AVAILABLE.

MNZ060>063-068>070-020000-
   Twin Cities Metro

CITY           SKY/WX    TMP DP  RH WIND       PRES   REMARKS
TWIN CITIES    FAIR      27  10  49 W16G24    30.23F WCI  15
ST PAUL        CLOUDY    28  10  46 W16G23    30.25S WCI  16
CRYSTAL        CLOUDY    28  12  51 W15       30.22S WCI  16
BLAINE         MOCLDY    28  12  50 W15G26    30.21F WCI  17
LAKEVILLE      PTCLDY    25  12  58 W15       30.23F WCI  12
EDEN PRAIRIE   MOCLDY    28  12  51 W10       30.23S WCI  19
SOUTH ST PAUL  PTCLDY    28  10  47 W9G21     30.24S WCI  20
LAKE ELMO      MOCLDY    27  12  54 W10       30.23S WCI  17
$$
MNZ001>005-007-008-013>017-022>024-027-028-020000-
   Northwest Minnesota

CITY           SKY/WX    TMP DP  RH WIND       PRES   REMARKS
BEMIDJI        FLURRIES  16   9  74 W14       30.17S WCI   1
HALLOCK        SUNNY     19   9  63 NW8       30.24S WCI   9
ROSEAU         FAIR      18   7  62 W9        30.18R WCI   6
WARROAD        CLEAR     18   3  53 W15       30.17R WCI   3
THIEF RVR FALL SUNNY     16  10  79 W12       30.23R WCI   3
CROOKSTON      FLURRIES  18  12  79 NW10      30.27R WCI   6
FOSSTON        FLURRIES  14   9  79 W13       30.23R WCI   0
DETROIT LAKES  FLURRIES  19  14  79 NW14      30.23R WCI   6
MOORHEAD       PTSUNNY   21  16  79 NW18      30.28R WCI   6
PARK RAPIDS    CLOUDY    18  10  71 W17       30.18R WCI   3
MAHNOMEN       FLURRIES  17  11  78 NW10      30.22S WCI   4
$$
MNZ006-009>011-018-025>026-020000-
   North Central Minnesota

CITY           SKY/WX    TMP DP  RH WIND       PRES   REMARKS
BAUDETTE       CLOUDY    19   8  62 W14       30.12R WCI   6
FLAG ISLAND    CLEAR     16   3  57 NW13      30.13R WCI   2
INTL FALLS     CLOUDY    18   7  62 NW14G20   30.10R HAZE    WCI   4
WASKISH        PTCLDY    16   9  73 SW13      30.16R WCI   2
BIG FORK       PTCLDY    19   7  58 W7        30.13R WCI  10
LONGVILLE      CLOUDY    19   9  63 W7G16     30.16R WCI  10
GRAND RAPIDS   CLOUDY    19   9  63 NW14G21   30.12R WCI   6
CRANE LAKE     PTCLDY    18   3  53 NW7       30.10S WCI   8
ORR            MOCLDY    18   3  53 W6G16     30.07R WCI   9
COOK           PTCLDY    19   7  58 W14G20    30.09R WCI   6
WALKER         CLOUDY    18   8  63 W15G23    30.16R WCI   4
$$
MNZ012-019>021-037-020000-
   Northeast Minnesota

CITY           SKY/WX    TMP DP  RH WIND       PRES   REMARKS
DULUTH         MOCLDY    23   7  50 W15G25    30.08R WCI  10
HIBBING        CLOUDY    20   7  57 W9G18     30.09R WCI   9
EVELETH        MOCLDY    21   9  58 NW13G18   30.09R WCI   9
DULUTH HARBOR  CLOUDY    25  10  54 SW15      30.15R WCI  12
SILVER BAY     PTCLDY    25   7  46 W8G18     30.04R WCI  16
GRAND MARAIS     N/A     26   6  42 W9        30.04R WCI  17
G MARAIS ARPRT CLEAR     18  -2  41 W12G18    29.96R WCI   5
$$
MNZ029>031-032-039>041-046>048-054>057-064-020000-
   West Central Minnesota

CITY           SKY/WX    TMP DP  RH WIND       PRES   REMARKS
FERGUS FALLS   CLOUDY    21  10  63 NW16      30.28R WCI   7
MORRIS         PTSUNNY   25  16  68 NW20G30   30.25R WCI  11
ALEXANDRIA     FLURRIES  21  14  74 W18       30.22R WCI   6
ELBOW LAKE     CLOUDY    21  14  75 NW17      30.25R WCI   6
WADENA         FLURRIES  19  10  68 W13       30.20R WCI   7
APPLETON       CLOUDY    27  16  63 NW17G23   30.28R WCI  14
BENSON         FLURRIES  27  16  63 N23       30.26R WCI  12
ORTONVILLE     CLOUDY    25  12  58 NW20G26   30.28R WCI  11
MADISON        MOSUNNY   27  16  63 NW18      30.29R WCI  13
WILLMAR        FLURRIES  27  16  63 W18G25    30.26R WCI  13
$$
MNZ033>034-036-042>043-049>051-058-059-020000-
   Central Minnesota

CITY           SKY/WX    TMP DP  RH WIND       PRES   REMARKS
ST CLOUD       CLOUDY    25  10  53 W16       30.21S WCI  12
SAUK CENTRE    FLURRIES  23  16  74 W13       30.21S WCI  11
PAYNESVILLE    FLURRIES  23  14  67 SW15G22   30.23S WCI  10
PINE RIVER     CLOUDY    19  10  68 W8G20     30.20S WCI   9
BRAINERD       FLURRIES  21  12  68 W12       30.18S WCI   9
STAPLES        LGT SNOW  19  12  73 W16       30.20R WCI   5
LONG PRAIRIE   CLOUDY    23  14  68 W13       30.20S WCI  11
LITTLE FALLS   PTCLDY    25  12  58 W12       30.21S WCI  14
LITCHFIELD     CLOUDY    27  16  63 W12G20    30.23R WCI  16
MAPLE LAKE     CLOUDY    28  13  52 W13G24    30.23R WCI  18
$$
MNZ037-044-045-052-053-020000-
   East Central Minnesota

CITY           SKY/WX    TMP DP  RH WIND       PRES   REMARKS
PRINCETON      MOCLDY    27  10  50 W13       30.20S WCI  16
MORA           MOCLDY    27  10  50 W14       30.19S WCI  15
RUSH CITY      CLOUDY    25  10  51 W10G16    30.20S WCI  15
MOOSE LAKE     CLOUDY    25   7  46 W8        30.13R WCI  16
HINCKLEY       CLOUDY    25  10  54 W9        30.17S WCI  15
CLOQUET        CLOUDY    23   9  54 W13G18    30.11R WCI  11
MCGREGOR       MOCLDY    25  10  54 W13G24    30.14S WCI  13
$$
MNZ071>073-080-081-089-090-097-098-020000-
   Southwest Minnesota

CITY           SKY/WX    TMP DP  RH WIND       PRES   REMARKS
MONTEVIDEO     CLOUDY    28  16  59 N14G24    30.29R WCI  17
GRANITE FALLS  PTSUNNY   27  18  69 W21G26    30.29R WCI  13
CANBY          MOSUNNY   27  18  69 NW17      30.29S WCI  14
MARSHALL       MOSUNNY   27  14  59 NW21G26   30.29R WCI  13
REDWOOD FALLS  CLOUDY    29  16  58 NW20G28   30.27R WCI  16
OLIVIA         MOSUNNY   28  19  69 NW17G23   30.25R WCI  16
PIPESTONE      MOSUNNY   27  16  63 NW13G25   30.28R WCI  16
WINDOM         PTSUNNY   28  16  59 W21G26    30.26S WCI  15
WORTHINGTON    SUNNY     34  14  44 W21       30.29R WCI  22
JACKSON        MOSUNNY   30  14  51 W17G25    30.27S WCI  18
TRACY          MOSUNNY   28  16  59 NW15G25   30.27S WCI  17
SLAYTON        PTSUNNY   27  14  56 W21G26    30.27R WCI  13
$$
MNZ065>067-074>077-082>085-091>093-020000-
   South Central Minnesota

CITY           SKY/WX    TMP DP  RH WIND       PRES   REMARKS
MANKATO        CLOUDY    28  12  50 W17G24    30.26S WCI  16
NEW ULM        CLOUDY    27  16  63 W18G26    30.26S WCI  13
ST JAMES       PTSUNNY   30  16  55 W18G24    30.28S WCI  18
FAIRMONT       PTSUNNY   28  12  50 W17       30.27S WCI  16
GLENCOE        CLOUDY    28  20  72 W16       30.24S WCI  16
FARIBAULT      CLOUDY    27  14  59 W12       30.25S WCI  16
OWATONNA       CLOUDY    27  12  54 W13       30.25S WCI  16
ALBERT LEA     CLEAR     27  12  54 W8G16     30.26S WCI  18
$$
MNZ078>079-086>088-094>096-020000-
   Southeast Minnesota

CITY           SKY/WX    TMP DP  RH WIND       PRES   REMARKS
ROCHESTER      CLEAR     21  10  62 W16       30.25R WCI   7
RED WING       MOCLDY    27  10  50 W12G20    30.24S WCI  16
STANTON        MOCLDY    27  15  59 W9        30.24S WCI  18
DODGE CENTER   CLEAR     23  14  68 W9        30.24S WCI  13
WINONA         CLEAR     27  10  50 W10G17    30.28R WCI  17
AUSTIN         CLEAR     25  12  58 W10G16    30.26S WCI  15
PRESTON        CLEAR     19  10  67 W13       30.26S WCI   7
$$
ABBREVIATIONS USED IN REMARKS
   TC - TEMPERATURES IN CELSIUS
  WCI - WIND CHILL INDEX
   HX - HEAT INDEX
  VSB - VISIBILITY
$$



USA.gov is the U.S. government's official web portal to all federal, state and local government web resources and services.